Location: Cardiff
(53.7833°N, 113.6000°W)
Time: 19:42:41
(UTC+00:00)

RS-15 - Pass Details

Date: 06 December 2023
Orbit: 1893 x 2151 km, 64.8° (Epoch: 24 February)

Event Time Altitude Azimuth Distance (km) Brightness Sun altitude
Rises 01:33:15 0° 149° (SSE) 5,651 10.3 -19.1°
Reaches altitude 10° 01:38:16 10° 133° (SE) 4,633 9.7 -19.8°
Enters shadow 01:41:56 16° 116° (ESE) 4,121 9.3 -20.4°
